W8APS Weather Reports


time (UTC)temp
F
wind
direction
speed
knots
gust
knots
rain 1hr
in
rain 24hr
in
rain mn
in
humidity
%
barometer
mb
20260507090516 38 0 0.0 0.0 0.00 0.00 0.00 88 1012.1
20260507090035 38 0 0.0 0.0 0.00 0.00 0.00 88 1012.2
20260507085513 38 0 0.0 0.0 0.00 0.00 0.00 88 1012.2
20260507085014 38 0 0.0 0.0 0.00 0.00 0.00 87 1012.2
20260507084535 38 0 0.0 0.0 0.00 0.00 0.00 87 1012.2
20260507084014 37 0 0.0 0.0 0.00 0.00 0.00 87 1012.2
20260507083515 37 0 0.0 0.0 0.00 0.00 0.00 88 1012.2
20260507083030 37 0 0.0 0.0 0.00 0.00 0.00 88 1012.2
20260507082517 38 0 0.0 0.0 0.00 0.00 0.00 88 1012.2
20260507082015 38 0 0.0 0.0 0.00 0.00 0.00 88 1012.2
20260507081532 38 0 0.0 0.0 0.00 0.00 0.00 88 1012.1
20260507081012 38 0 0.0 0.0 0.00 0.00 0.00 88 1012.2
20260507080513 38 0 0.0 0.0 0.00 0.00 0.00 87 1012.2
20260507080030 38 0 0.0 0.0 0.00 0.00 0.00 85 1012.2
20260507075516 38 0 0.0 0.0 0.00 0.00 0.00 86 1012.1
20260507075017 39 0 0.0 0.0 0.00 0.00 0.00 86 1012.2
20260507074528 39 0 0.0 0.0 0.00 0.00 0.00 86 1012.1
20260507074012 39 0 0.0 0.0 0.00 0.00 0.00 86 1012.1
20260507073513 39 0 0.0 0.0 0.00 0.00 0.00 84 1012.1
20260507073032 39 0 0.0 0.0 0.00 0.00 0.00 83 1012.1
20260507072513 39 0 0.0 0.0 0.00 0.00 0.00 83 1012.1
20260507072014 39 0 0.0 0.0 0.00 0.00 0.00 82 1012.2
20260507071532 39 0 0.0 0.0 0.00 0.00 0.00 81 1012.2
20260507071014 39 0 0.0 0.0 0.00 0.00 0.00 78 1012.3
20260507070514 40 0 0.0 0.0 0.00 0.00 0.00 78 1012.3
20260507070030 40 0 0.0 0.0 0.00 0.00 0.00 73 1012.4
20260507065513 40 0 0.0 0.0 0.00 0.00 0.00 74 1012.3
20260507065013 41 0 0.0 0.0 0.00 0.00 0.00 74 1012.3
20260507064529 41 0 0.0 0.9 0.00 0.00 0.00 75 1012.3
20260507064014 41 0 0.0 0.9 0.00 0.00 0.00 75 1012.3
20260507063514 41 0 0.0 0.9 0.00 0.00 0.00 74 1012.4
20260507063029 42 0 0.0 0.0 0.00 0.00 0.00 66 1012.4
20260507062514 42 0 0.0 0.0 0.00 0.00 0.00 65 1012.3
20260507062015 43 0 0.0 0.0 0.00 0.00 0.00 63 1012.4
20260507061528 43 0 0.0 0.0 0.00 0.00 0.00 63 1012.5
20260507061016 43 0 0.0 0.0 0.00 0.00 0.00 63 1012.5
20260507060550 43 0 0.0 0.0 0.00 0.00 0.00 61 1012.6
20260507060046 44 0 0.0 0.9 0.00 0.00 0.00 61 1012.5
20260507055518 44 0 0.0 0.9 0.00 0.00 0.00 60 1012.5
20260507055014 44 0 0.0 0.9 0.00 0.00 0.00 59 1012.5
20260507054539 45 0 0.0 0.9 0.00 0.00 0.00 59 1012.5
20260507054013 45 288 0.0 0.9 0.00 0.00 0.00 58 1012.5
20260507053515 45 0 0.0 0.9 0.00 0.00 0.00 57 1012.6
20260507053031 45 0 0.0 0.9 0.00 0.00 0.00 57 1012.6
20260507052518 45 0 0.0 0.9 0.00 0.00 0.00 57 1012.5
20260507052018 45 288 0.0 0.9 0.00 0.00 0.00 57 1012.7
20260507051530 46 0 0.0 1.7 0.00 0.00 0.00 57 1012.6
20260507051013 46 0 0.0 1.7 0.00 0.00 0.00 56 1012.7
20260507050513 46 0 0.0 0.9 0.00 0.00 0.00 57 1012.7
20260507050029 46 0 0.0 0.9 0.00 0.00 0.00 57 1012.7
20260507045511 46 0 0.0 0.9 0.00 0.00 0.00 56 1012.7
20260507045011 46 249 0.0 1.7 0.00 0.00 0.00 56 1012.7
20260507044545 46 0 0.0 1.7 0.00 0.00 0.00 56 1012.8
20260507044013 46 240 0.0 0.9 0.00 0.00 0.00 56 1012.7
20260507043515 46 237 0.0 0.9 0.00 0.00 0.00 57 1012.7
20260507043030 47 233 0.0 0.9 0.00 0.00 0.00 58 1012.7
20260507042513 47 233 0.0 1.7 0.00 0.00 0.00 59 1012.7
20260507042013 47 232 0.0 1.7 0.00 0.00 0.00 59 1012.8
20260507041532 47 0 0.0 1.7 0.00 0.00 0.00 59 1012.8
20260507041013 47 0 0.0 0.9 0.00 0.00 0.00 59 1012.8
20260507040513 47 224 0.0 0.9 0.00 0.00 0.00 58 1012.7
20260507040034 47 0 0.0 0.9 0.00 0.00 0.00 58 1012.7
20260507035515 47 233 0.0 0.9 0.00 0.00 0.00 58 1012.7
20260507035017 47 0 0.0 1.7 0.00 0.00 0.00 58 1012.7
20260507034535 47 208 0.0 2.6 0.00 0.00 0.00 57 1012.7
20260507034014 47 219 0.9 2.6 0.00 0.00 0.00 56 1012.8
20260507033515 47 236 0.0 1.7 0.00 0.00 0.00 57 1012.8
20260507033034 47 231 0.0 1.7 0.00 0.00 0.00 57 1012.8
20260507032514 47 235 0.0 1.7 0.00 0.00 0.00 58 1012.8
20260507032014 47 242 0.0 2.6 0.00 0.00 0.00 58 1012.8
20260507031530 47 229 0.0 2.6 0.00 0.00 0.00 59 1012.8
20260507031014 47 0 0.0 0.9 0.00 0.00 0.00 59 1013.0
20260507030515 47 0 0.0 0.9 0.00 0.00 0.00 60 1013.0
20260507030032 48 226 0.0 1.7 0.00 0.00 0.00 59 1013.0
20260507025513 48 217 0.0 1.7 0.00 0.00 0.00 59 1012.9
20260507025015 48 218 0.0 1.7 0.00 0.00 0.00 59 1012.9
20260507024533 48 0 0.0 1.7 0.00 0.00 0.00 59 1012.9
20260507024014 48 0 0.0 1.7 0.00 0.00 0.00 57 1012.9
20260507023515 48 0 0.0 0.9 0.00 0.00 0.00 57 1012.8
20260507023030 48 248 0.0 0.9 0.00 0.00 0.00 57 1012.8
20260507022515 48 236 0.0 0.0 0.00 0.00 0.00 58 1012.8
20260507022016 48 0 0.0 0.9 0.00 0.00 0.00 57 1012.7
20260507021531 48 0 0.0 0.9 0.00 0.00 0.00 56 1012.6
20260507021016 48 207 0.0 0.9 0.00 0.00 0.00 56 1012.6
20260507020514 48 219 0.0 0.9 0.00 0.00 0.00 56 1012.5
20260507020040 48 0 0.0 0.9 0.00 0.00 0.00 55 1012.6
20260507015517 48 0 0.0 0.9 0.00 0.00 0.00 55 1012.5
20260507015014 48 0 0.0 0.9 0.00 0.00 0.00 55 1012.5
20260507014534 48 220 0.0 0.9 0.00 0.00 0.00 56 1012.5
20260507014016 49 0 0.0 1.7 0.00 0.00 0.00 55 1012.5
20260507013514 49 0 0.0 1.7 0.00 0.00 0.00 56 1012.4
20260507013031 49 170 0.0 0.9 0.00 0.00 0.00 55 1012.5
20260507012515 49 215 0.0 0.9 0.00 0.00 0.00 54 1012.4
20260507012014 49 0 0.0 0.9 0.00 0.00 0.00 55 1012.5
20260507011532 49 0 0.0 0.0 0.00 0.00 0.00 53 1012.3
20260507011014 49 0 0.0 0.9 0.00 0.00 0.00 54 1012.5
20260507010514 49 0 0.0 0.9 0.00 0.00 0.00 53 1012.4
20260507010037 49 220 0.0 0.9 0.00 0.00 0.00 53 1012.4
20260507005515 49 0 0.0 0.9 0.00 0.00 0.00 52 1012.4
20260507005015 49 0 0.0 0.9 0.00 0.00 0.00 53 1012.3
20260507004532 49 153 0.0 0.9 0.00 0.00 0.00 52 1012.4
20260507004014 49 0 0.0 0.9 0.00 0.00 0.00 54 1012.4
20260507003516 49 0 0.0 0.9 0.00 0.00 0.00 52 1012.4
20260507003032 49 0 0.0 0.9 0.00 0.00 0.00 53 1012.3
20260507002514 50 200 0.0 0.9 0.00 0.00 0.00 53 1012.4
20260507002018 50 0 0.0 1.7 0.00 0.00 0.00 51 1012.3
20260507001537 50 262 0.0 1.7 0.00 0.00 0.00 50 1012.3
20260507001014 50 235 0.0 1.7 0.00 0.00 0.00 50 1012.3
20260507000513 50 0 0.0 1.7 0.00 0.00 0.00 50 1012.3
20260507000034 50 242 0.0 2.6 0.00 0.00 0.00 49 1012.2
20260506235515 50 264 0.0 2.6 0.00 0.00 0.00 49 1012.2
20260506235014 50 254 0.9 2.6 0.00 0.00 0.00 48 1012.3
20260506234531 50 279 0.9 3.5 0.00 0.00 0.00 48 1012.1
20260506234012 50 285 0.9 4.3 0.00 0.00 0.00 48 1012.1
20260506233514 50 0 0.9 7.0 0.00 0.00 0.00 47 1012.1
20260506233030 50 250 1.7 7.0 0.00 0.00 0.00 47 1012.1
20260506232513 50 272 0.9 5.2 0.00 0.00 0.00 47 1012.1
20260506232012 51 223 0.9 4.3 0.00 0.00 0.00 48 1012.1
20260506231530 50 246 1.7 7.0 0.00 0.00 0.00 47 1012.1
20260506231015 51 262 1.7 7.0 0.00 0.00 0.00 47 1012.1
20260506230513 51 240 1.7 7.0 0.00 0.00 0.00 48 1012.0
20260506230032 51 300 2.6 7.0 0.00 0.00 0.00 45 1012.2
20260506225515 51 264 2.6 9.6 0.00 0.00 0.00 45 1012.1
20260506225012 51 292 4.3 11.3 0.00 0.00 0.00 45 1012.2
20260506224530 51 236 2.6 11.3 0.00 0.00 0.00 44 1012.2
20260506224014 51 276 1.7 8.7 0.00 0.00 0.00 46 1012.3
20260506223515 51 193 2.6 11.3 0.00 0.00 0.00 45 1012.3
20260506223029 51 198 2.6 11.3 0.00 0.00 0.00 44 1012.3
20260506222515 51 253 5.2 11.3 0.00 0.00 0.00 43 1012.4
20260506222017 51 274 0.9 3.5 0.00 0.00 0.00 46 1012.4
20260506221529 51 0 0.0 3.5 0.00 0.00 0.00 47 1012.4
20260506221015 51 196 0.9 3.5 0.00 0.00 0.00 45 1012.4
20260506220514 51 260 0.0 2.6 0.00 0.00 0.00 45 1012.3
20260506220036 51 0 0.0 4.3 0.00 0.00 0.00 45 1012.3
20260506215511 51 255 0.9 5.2 0.00 0.00 0.00 45 1012.3
20260506215015 51 0 0.0 5.2 0.00 0.00 0.00 45 1012.4
20260506214531 51 259 0.9 6.1 0.00 0.00 0.00 45 1012.4
20260506214017 50 277 1.7 7.8 0.00 0.00 0.00 45 1012.3
20260506213514 50 255 1.7 7.8 0.00 0.00 0.00 46 1012.3
20260506213034 50 293 3.5 7.8 0.00 0.00 0.00 45 1012.3
20260506212515 50 297 2.6 8.7 0.00 0.00 0.00 45 1012.3
20260506212016 50 252 2.6 8.7 0.00 0.00 0.00 45 1012.3
20260506211532 50 231 1.7 8.7 0.00 0.00 0.00 45 1012.3
20260506211013 50 0 0.9 5.2 0.00 0.00 0.00 46 1012.2
20260506210515 50 299 1.7 7.8 0.00 0.00 0.00 45 1012.2
20260506210033 50 274 0.9 7.8 0.00 0.00 0.00 46 1012.3
20260506205513 50 295 2.6 7.8 0.00 0.00 0.00 46 1012.3
20260506205019 51 296 1.7 6.1 0.00 0.00 0.00 44 1012.3
20260506204531 51 297 0.0 2.6 0.00 0.00 0.00 44 1012.3
20260506204013 51 0 0.0 3.5 0.00 0.00 0.00 46 1012.3
20260506203514 51 283 0.9 4.3 0.00 0.00 0.00 46 1012.3
20260506203033 50 233 0.9 6.1 0.00 0.00 0.00 47 1012.2
20260506202515 50 224 0.0 6.1 0.00 0.00 0.00 48 1012.1
20260506202018 50 0 1.7 6.1 0.00 0.00 0.00 47 1012.5
20260506201532 50 278 1.7 5.2 0.00 0.00 0.00 48 1012.5
20260506201013 50 307 1.7 5.2 0.00 0.00 0.00 47 1012.5
20260506200520 50 267 0.0 5.2 0.00 0.00 0.00 48 1012.6
20260506200033 50 232 2.6 5.2 0.00 0.00 0.00 46 1012.5
20260506195514 50 290 0.9 5.2 0.00 0.00 0.00 48 1012.4
20260506195014 49 301 1.7 5.2 0.00 0.00 0.00 47 1012.4
20260506194532 49 323 0.9 5.2 0.00 0.00 0.00 47 1012.6
20260506194015 49 290 0.9 8.7 0.00 0.00 0.00 47 1012.5
20260506193513 49 306 0.9 8.7 0.00 0.00 0.00 48 1012.6
20260506193033 49 303 2.6 6.1 0.00 0.00 0.00 48 1012.5
20260506192512 49 196 2.6 6.1 0.00 0.00 0.00 49 1012.7
20260506192013 49 294 2.6 7.0 0.00 0.00 0.00 48 1012.7
20260506191534 49 331 2.6 7.0 0.00 0.00 0.00 48 1012.6
20260506191012 50 56 1.7 7.8 0.00 0.00 0.00 47 1012.7
20260506190513 49 248 3.5 8.7 0.00 0.00 0.00 47 1012.6
20260506190030 49 238 4.3 8.7 0.00 0.00 0.00 48 1012.5
20260506185513 50 224 0.9 5.2 0.00 0.00 0.00 48 1012.5
20260506185017 50 319 0.9 10.4 0.00 0.00 0.00 49 1012.5
20260506184533 49 348 2.6 10.4 0.00 0.00 0.00 49 1012.5
20260506184014 49 310 0.9 7.0 0.00 0.00 0.00 50 1012.5
20260506183515 49 283 2.6 10.4 0.00 0.00 0.00 48 1012.5
20260506183032 49 276 1.7 10.4 0.00 0.00 0.00 49 1012.5
20260506182513 49 297 4.3 11.3 0.00 0.00 0.00 48 1012.5
20260506182013 49 313 1.7 11.3 0.00 0.00 0.00 50 1012.4
20260506181533 49 258 3.5 7.8 0.00 0.00 0.00 49 1012.6
20260506181015 49 320 2.6 8.7 0.00 0.00 0.00 48 1012.5
20260506180512 50 305 2.6 8.7 0.00 0.00 0.00 46 1012.5
20260506180036 49 314 2.6 7.0 0.00 0.00 0.00 50 1012.6
20260506175514 49 307 0.9 9.6 0.00 0.00 0.00 51 1012.5
20260506175016 49 271 2.6 9.6 0.00 0.00 0.00 51 1012.7
20260506174533 49 272 1.7 9.6 0.00 0.00 0.00 50 1012.8
20260506174015 49 357 0.9 7.8 0.00 0.00 0.00 53 1012.7
20260506173515 49 0 2.6 7.8 0.00 0.00 0.00 53 1012.7
20260506173032 49 298 0.9 7.0 0.00 0.00 0.00 56 1012.7
20260506172514 48 275 2.6 7.0 0.00 0.00 0.00 56 1012.7
20260506172015 48 0 0.9 7.0 0.00 0.00 0.00 57 1012.6
20260506171543 48 305 1.7 7.0 0.00 0.00 0.00 57 1012.7
20260506171015 47 306 3.5 7.0 0.00 0.00 0.00 56 1012.8
20260506170514 48 302 2.6 9.6 0.00 0.00 0.00 55 1012.7
20260506170037 48 345 2.6 9.6 0.00 0.00 0.00 54 1012.7
20260506165515 48 301 0.9 4.3 0.00 0.00 0.00 54 1012.5
20260506165014 48 311 0.9 5.2 0.00 0.00 0.00 55 1012.4
20260506164533 48 250 1.7 9.6 0.00 0.00 0.00 54 1012.5
20260506164013 48 267 2.6 9.6 0.00 0.00 0.00 54 1012.7
20260506163515 48 318 3.5 8.7 0.00 0.00 0.00 53 1012.6
20260506163040 49 276 3.5 7.8 0.00 0.00 0.00 53 1012.6
20260506162515 49 318 1.7 6.1 0.00 0.00 0.00 55 1012.8
20260506162014 48 325 2.6 6.1 0.00 0.00 0.00 53 1012.8
20260506161532 48 271 0.9 5.2 0.00 0.00 0.00 54 1012.8
20260506161014 49 311 1.7 7.8 0.00 0.00 0.00 56 1012.7
20260506160515 47 319 2.6 11.3 0.00 0.00 0.00 54 1012.6
20260506160032 48 307 5.2 11.3 0.00 0.00 0.00 54 1012.5
20260506155512 47 253 1.7 5.2 0.00 0.00 0.00 55 1012.4
20260506155014 48 321 1.7 7.0 0.00 0.00 0.00 57 1012.4
20260506154534 47 338 1.7 7.0 0.00 0.00 0.00 57 1012.4
20260506154014 47 28 1.7 7.0 0.00 0.00 0.00 56 1012.4
20260506153514 47 12 2.6 7.0 0.00 0.00 0.00 58 1012.4
20260506153028 47 341 3.5 7.0 0.00 0.00 0.00 56 1012.5
20260506152514 47 270 2.6 8.7 0.00 0.00 0.00 57 1012.5
20260506152015 47 358 4.3 8.7 0.00 0.00 0.00 58 1012.4
20260506151536 47 348 1.7 6.1 0.00 0.00 0.00 59 1012.6
20260506151019 46 299 3.5 6.1 0.00 0.00 0.00 58 1012.5
20260506150514 47 336 2.6 6.1 0.00 0.00 0.00 58 1012.5
20260506150033 46 269 0.9 3.5 0.00 0.00 0.00 58 1012.5
20260506145519 46 48 0.9 3.5 0.00 0.00 0.00 59 1012.3
20260506145013 46 26 0.0 3.5 0.00 0.00 0.00 60 1012.2
20260506144530 45 68 0.9 5.2 0.00 0.00 0.00 62 1012.2
20260506144015 45 8 1.7 5.2 0.00 0.00 0.00 61 1012.4
20260506143512 45 300 1.7 5.2 0.00 0.00 0.00 61 1012.3
20260506143032 44 115 1.7 5.2 0.00 0.00 0.00 61 1012.1
20260506142515 44 71 1.7 7.0 0.00 0.00 0.00 62 1012.1
20260506142012 44 356 2.6 7.0 0.00 0.00 0.00 63 1012.2
20260506141529 43 27 2.6 7.8 0.00 0.00 0.00 63 1012.1
20260506141014 43 15 4.3 7.8 0.00 0.00 0.00 62 1012.2
20260506140518 44 56 2.6 7.0 0.00 0.00 0.00 63 1012.0
20260506140030 44 316 1.7 7.8 0.00 0.00 0.00 64 1011.9
20260506135512 43 321 2.6 7.8 0.00 0.00 0.00 66 1011.9
20260506135014 43 4 3.5 7.8 0.00 0.00 0.00 63 1012.0
20260506134532 43 34 3.5 8.7 0.00 0.00 0.00 64 1011.9
20260506134012 43 313 3.5 8.7 0.00 0.00 0.00 63 1011.9
20260506133513 43 347 4.3 8.7 0.00 0.00 0.00 64 1011.9
20260506133042 42 13 3.5 7.8 0.00 0.00 0.00 64 1011.8
20260506132515 42 14 3.5 7.8 0.00 0.00 0.00 64 1011.6
20260506132015 42 349 3.5 7.8 0.00 0.00 0.00 65 1011.6
20260506131535 42 23 2.6 7.8 0.00 0.00 0.00 65 1011.7
20260506131015 42 43 3.5 7.8 0.00 0.00 0.00 65 1011.7
20260506130515 42 343 2.6 9.6 0.00 0.00 0.00 67 1011.6
20260506130030 41 41 3.5 9.6 0.00 0.00 0.00 67 1011.4
20260506125514 41 18 5.2 9.6 0.00 0.00 0.00 66 1011.3
20260506125014 41 348 3.5 7.8 0.00 0.00 0.00 69 1011.3
20260506124532 41 328 4.3 7.8 0.00 0.00 0.00 69 1011.2
20260506124012 41 13 3.5 8.7 0.00 0.00 0.00 70 1011.2
20260506123513 41 35 4.3 10.4 0.00 0.00 0.00 70 1011.2
20260506123032 41 14 5.2 10.4 0.00 0.00 0.00 70 1011.2
20260506122513 41 342 2.6 10.4 0.00 0.00 0.00 72 1011.3
20260506122014 41 345 2.6 8.7 0.00 0.00 0.00 73 1011.1
20260506121531 41 29 5.2 8.7 0.00 0.00 0.00 72 1011.0
20260506121017 41 348 3.5 8.7 0.00 0.00 0.00 72 1010.8
20260506120514 41 328 3.5 7.0 0.00 0.00 0.00 73 1010.9
20260506120037 41 4 1.7 7.8 0.00 0.00 0.00 74 1010.9
20260506115519 41 30 3.5 8.7 0.00 0.00 0.00 74 1010.6
20260506115013 41 5 3.5 8.7 0.00 0.00 0.00 74 1010.6
20260506114531 41 346 4.3 7.0 0.00 0.00 0.00 73 1010.3
20260506114018 41 343 1.7 5.2 0.00 0.00 0.00 73 1010.3
20260506113512 41 22 1.7 5.2 0.00 0.00 0.00 73 1010.3
20260506113030 41 344 1.7 3.5 0.00 0.00 0.00 72 1010.3
20260506112512 41 0 0.0 2.6 0.00 0.00 0.00 73 1010.2
20260506112013 41 355 0.0 1.7 0.00 0.00 0.00 73 1010.1
20260506111529 41 335 0.0 0.9 0.00 0.00 0.00 72 1010.0
20260506111014 41 329 0.0 2.6 0.00 0.00 0.00 72 1009.8
20260506110518 41 339 0.0 2.6 0.00 0.00 0.00 72 1009.7
20260506110033 41 3 0.0 0.9 0.00 0.00 0.00 71 1009.7
20260506105515 41 315 0.0 0.9 0.00 0.00 0.00 71 1009.7
20260506105014 41 0 0.0 0.9 0.00 0.00 0.00 70 1009.5
20260506104537 41 4 0.0 0.9 0.00 0.00 0.00 70 1009.4
20260506104015 41 340 0.0 1.7 0.00 0.00 0.00 69 1009.4
20260506103515 42 0 0.0 1.7 0.00 0.00 0.00 69 1009.5
20260506103035 42 0 0.0 0.9 0.00 0.00 0.00 69 1009.4
20260506102513 42 339 0.0 4.3 0.00 0.00 0.00 69 1009.4
20260506102016 42 0 0.9 4.3 0.00 0.00 0.00 68 1009.4
20260506101544 42 13 1.7 5.2 0.00 0.00 0.00 67 1009.4
20260506101019 42 341 2.6 7.0 0.00 0.00 0.00 67 1009.3
20260506100515 42 4 0.0 7.0 0.00 0.00 0.00 68 1009.0
20260506100033 42 326 2.6 7.0 0.00 0.00 0.00 68 1008.9
20260506095514 43 34 1.7 5.2 0.00 0.00 0.00 69 1008.8
20260506095014 43 1 0.9 5.2 0.00 0.00 0.00 72 1008.7
20260506094529 43 323 0.9 5.2 0.00 0.00 0.00 73 1008.7
20260506094014 43 20 1.7 5.2 0.00 0.00 0.00 74 1008.8
20260506093515 43 333 1.7 4.3 0.00 0.00 0.00 76 1008.8
20260506093032 43 8 0.9 4.3 0.00 0.00 0.00 77 1008.7
20260506092514 44 23 1.7 4.3 0.00 0.00 0.00 77 1008.7
20260506092012 44 7 0.9 4.3 0.00 0.00 0.00 77 1008.8
20260506091532 44 21 0.9 2.6 0.00 0.00 0.00 77 1008.7
20260506091014 44 340 0.9 3.5 0.00 0.00 0.00 77 1008.7